Qianfan 05-10

operational
NORAD ID: 63168 Int'l Des: 2025-046 Owner: YUANX Country: CN Constellation: qianfan
LEOCIRCULARPOLAR

Qianfan 05-10について

説明を読み込み中...

リアルタイム位置

3D地球を読み込み中...

次回通過

高度履歴

Altitude vs Time

uPlot chart will show altitude changes over time

軌道要素

1 63168U 25046K 25303.86176742 .00000098 00000-0 13302-3 0 9994
2 63168 88.9769 324.3577 0011007 249.4527 110.5443 13.50972392 41684
Epoch: Oct 30, 2025 • Age: 10 hours

現在のステータス

高度 1074.5 km
速度 7.32 km/s
衛星直下点 32.81°N, 9.38°E
打ち上げ日 Mar 11, 2025
運用期間 0.6 years
タイプ internet

技術仕様

分類 Payload
質量 267.00 kg
乾燥質量 267.00 kg
総質量 267.00 kg
長さ 0.30 m
直径 3.00 m
スパン 10.00 m
形状 Box+pan
製造者 GESIH
バスタイプ Qianfan
フェーズステータス In Orbit
所有者/国 YUANX/CN

大規模コンステレーション

Loading constellations...